User: anonymous   Login
Location: Unspecified
(0.0000°N, 0.0000°E)
Time: 10:36:13
(UTC+00:00)
Language:

Tiangong 1 - Orbit

View from above orbital plane
View from above orbital plane
View from above satellite
View from above satellite

Ground track
Ground track

The orbit data is extracted from the following two-line orbital elements,

1 37820U 11053A   17177.81313676 +.00023238 +00000-0 +12645-3 0  9997
2 37820 042.7580 141.0223 0017649 149.0920 282.8772 15.79250335329496
Epoch (UTC): 26 June 2017 19:30:55
Eccentricity: 0.0017649
inclination: 42.7580°
perigee height: 321 km
apogee height: 344 km
right ascension of ascending node: 141.0223°
argument of perigee: 149.0920°
revolutions per day: 15.79250335
mean anomaly at epoch: 282.8772°
orbit number at epoch: 32949

The dashed part of the orbit path shows where the satellite is in the earth's shadow,  

DLR